Location: Northcutt
(34.7304°N, 84.4305°W)
Time: 03:49:07
(UTC+00:00)

Vanguard 2 - Pass Details

Date: 09 October 2022
Orbit: 553 x 2933 km, 32.9° (Epoch: 05 December)

Event Time Altitude Azimuth Distance (km) Brightness Sun altitude
Rises 00:43:01 0° 277° (W) 6,381 13.9 -19.5°
Reaches altitude 10° 00:48:39 10° 264° (W) 5,597 13.0 -20.6°
Maximum altitude 00:59:53 21° 223° (SW) 4,853 11.9 -22.9°
Drops below altitude 10° 01:11:05 10° 182° (S) 5,501 11.8 -25.2°
Sets 01:16:42 0° 167° (SSE) 6,238 11.9 -26.3°
